View from above orbital plane
|
View from above satellite
|
Ground track
|
The orbit data is extracted from the following two-line orbital elements,
1 40910U 15049M 21102.44555124 .00001382 00000-0 69500-4 0 9997
2 40910 97.4738 108.4024 0015601 45.1999 90.4986 15.18815209307706
Epoch (UTC): | 12 April 2021 10:41:35 |
Eccentricity: | 0.0015601 |
inclination: | 97.4738° |
perigee height: | 498 km |
apogee height: | 520 km |
right ascension of ascending node: | 108.4024° |
argument of perigee: | 45.1999° |
revolutions per day: | 15.18815209 |
mean anomaly at epoch: | 90.4986° |
orbit number at epoch: | 30770 |
The dashed part of the orbit path shows where the satellite is in the earth's shadow,
|
|